map of AWK home
AWK - Airport
Location
City:  Wake Island, United States Minor Outlying Islands
Name:Wake Island Airfield
ICAO:PWAK
IATA:AWK
FAA LID:AWK

Details
Type:Airport (Aerodrome, Airfield)
Use:Military
Latitude:1916'57"N (19.282489)
Longitude:16638'12"E (166.636661)
Datum:WGS 1984
Elevation:23 ft (7 m)
Variation:5.32E (WMM2015 magnetic declination)
-0.01 annual change
Runways:1
Longest:9844 × 150 ft (3000 × 45.5 m), paved

Time
Time Zone:UTC+12
Local Time:

Weather
METAR:PWAK 172158Z AUTO 09008KT 9999 FEW017 30/24 A2991 RMK AO2 SLP135
TAF:PWAK 172200Z 1722/1904 09009KT 9999 SCT017 QNH2982INS TX31/1803Z TN27/1818Z

Related Locations
Nearby:
Farthest:HLE: 11888 mi / 19131 km
St. Helena (Jamestown, Prosperous Bay Plain) [St. Helena Airport], HL, SH

Find:

   beyond  
but within

Other Information
Maps:
NOTAMs:
Links:
Sources:

  

Sectional Chart

Flight Planning
at skyvector.com

Satellite Image

Google Maps Satellite view

 

Copyright © 2004-2018 Karl L. Swartz. All rights reserved.
The Great Circle Mapper name and logo are trademarks of the Great Circle Mapper.
All other trademarks mentioned herein belong to their respective owners.
Please see credits for attibutions and further copyright information.

  Follow gcmap on Facebook Follow gcmap on Twitter Follow gcmap on Google+ GCmap on LinkedIn

hCard Microformat

Geo Microformat